Weather in Solncevo

Russia / Kursk Oblast     51°24′58″N   36°45′18″E
temp.,
°C
wind,
m/s
gust,
m/s
humid.,
%
clouds,
%
prec.,
mm/h
press.,
hPa
HPBL,
m
27 november, sat
sat2700:00−1sse5128898 0.0 1015289
03:00−1sse51395100 0.0 1013313
06:000se61688100 0.0 1011441
09:00+2sse81985100 0.0 1009579
12:00+3sse91887100 0.6 1006833
15:00+3sse91894100 1.9 1004669
18:00+4s81694100 0.1 1004507
21:00+5s61394100 0.1 1004353
28 november, sun
sun2800:00+5s5119692 0.1 1005246
03:00+5ssw4897100 0.1 1005284
06:00+6ssw3794100 0.0 1005184
09:00+5ssw359862 0.0 1008155
12:00+6sw349088 0.0 1008303
15:00+7ssw348891 0.0 1009360
18:00+6sse5787100 0.0 1010334
21:00+5se499281 0.0 1009194
29 november, mon
mon2900:00+5se4109696 0.0 1009230
03:00+5se41097100 0.0 1007213
06:00+6se41198100 1.9 1005283
09:00+8se51198100 2.5 1003413
12:00+9sse61397100 0.7 1000605
15:00+10sse81591100 0.9 996831
18:00+10s81695100 2.6 991919
21:00+11s81692100 5.7 988837
30 november, tue
tue3000:00+11ssw101789100 8.8 9851111
03:00+7wsw111782100 9.5 9871194
06:00+4wsw101573100 0.0 9911110
09:00+3wsw101665100 0.0 9931321
12:00+4sw915615 0.0 9941206
15:00+3sw9156765 0.0 9941205
18:00+2sw101563100 0.0 9941443
21:00+1sw9157185 0.0 9931046
1 december, wed
wed100:000wsw8128581 0.1 9941033
03:00−1wsw61091100 0.3 997864
06:00−2w81280100 0.4 998812
09:00−2w71180100 0.4 999925
12:00−1w6973100 0.1 1001978
15:00−2sw4893100 0.5 1000612
18:00−1sw4109696 1.1 1000678
21:00−1sw4109696 1.3 1001501